Flag for U.S.A. Weather past 2 weeks in Arlington, Texas, U.S.A.

Now
82 °F

Sunny.


Feels Like: 87 °F
Forecast: 78 / 98 °F
Wind: 12 mph from South

Location: Arlington Municipal Airport

Current Time: Aug 22, 2014 at 9:55:57 AM

Latest Report: Aug 22, 2014 at 8:53 AM


Visibility: 10 mi

Pressure: 30.03 "Hg

Humidity: 72%

Dew point: 72 °F

Location of ArlingtonLocation

Historic Weather in Arlington — Graph

°F

Arlington temperature yesterday

Maximum temperature yesterday: 98 °F (at 3:53 PM)
Minimum temperature yesterday: 78 °F (at 6:53 AM)
Average temperature yesterday: 88 °F

Past Weeks' High & Low Weather Summary

 TemperatureHumidityPressure
High103 °F (Aug 8, 3:53 PM)91% (Aug 18, 5:53 AM)30.09 "Hg (Aug 18, 5:53 AM)
Low66 °F (Aug 13, 5:53 AM)25% (Aug 9, 4:53 PM)29.76 "Hg (Aug 7, 6:53 PM)
Average86 °F54%29.93 "Hg
* Reported Aug 7 8:53 AM — Aug 22 8:53 AM, Arlington, Weather by CustomWeather, © 2014

Note: Actual official high and low records may vary slightly from our data, if they occured in-between our weather recording intervals... More about our weather records

Advertising

Arlington weather history for previous 24 hours

 ConditionsComfort  
Time TempWeatherWind HumidityBarometerVisibility
8:53 AM
Aug 22
82 °FSunny.12 mph72%30.03 "Hg10 mi
7:53 AM79 °FClear.10 mph82%30.02 "Hg10 mi
6:53 AM79 °FClear.7 mph82%30.01 "Hg10 mi
5:53 AM80 °FClear.9 mph79%29.99 "Hg10 mi
4:53 AM81 °FClear.12 mph74%29.98 "Hg10 mi
3:53 AM82 °FClear.9 mph72%29.97 "Hg10 mi
2:53 AM83 °FClear.14 mph65%29.95 "Hg10 mi
1:53 AM85 °FClear.12 mph57%29.95 "Hg10 mi
12:53 AM86 °FClear.12 mph51%29.95 "Hg10 mi
11:53 PM
Aug 21
87 °FClear.12 mph48%29.94 "Hg10 mi
10:53 PM88 °FClear.12 mph46%29.94 "Hg10 mi
9:53 PM90 °FClear.12 mph41%29.93 "Hg10 mi
8:53 PM90 °FSunny.8 mph38%29.92 "Hg10 mi
7:53 PM95 °FSunny.10 mph31%29.91 "Hg10 mi
6:53 PM97 °FSunny.10 mph29%29.90 "Hg10 mi
5:53 PM98 °FSunny.12 mph28%29.90 "Hg10 mi
4:53 PM98 °FSunny.10 mph31%29.91 "Hg10 mi
3:53 PM98 °FSunny.15 mph33%29.92 "Hg10 mi
2:53 PM96 °FSunny.14 mph37%29.94 "Hg10 mi
1:53 PM95 °FSunny.13 mph41%29.97 "Hg10 mi
12:53 PM91 °FPassing clouds.12 mph49%29.98 "Hg10 mi
11:53 AM90 °FPartly sunny.15 mph52%29.99 "Hg10 mi
10:53 AM88 °FBroken clouds.12 mph59%30.00 "Hg10 mi
9:53 AM85 °FPartly sunny.17 mph68%29.99 "Hg10 mi
Weather by CustomWeather, © 2014

See weather overviewHow to use our weather pages